Location: *
(46.1006°N, 1.8394°E)
Time: 13:27:56
(UTC+00:00)

Meteor 1-24 Rocket - Pass Details

Date: 20 September 2019
Orbit: 791 x 926 km, 81.2° (Epoch: 17 October)

Event Time Altitude Azimuth Distance (km) Brightness Sun altitude
Rises 19:10:32 0° 356° (N) 3,458 7.2 -13.7°
Reaches altitude 10° 19:13:11 10° 5° (N) 2,538 6.3 -14.2°
Maximum altitude 19:18:25 34° 70° (ENE) 1,431 4.5 -15.0°
Enters shadow 19:21:13 23° 116° (ESE) 1,830 4.8 -15.5°
